Flag for France Weather past 2 weeks in Chalon-sur-Saône, France

Now
66 °F

Scattered clouds.


Feels Like: 66 °F
Forecast: 46 / 58 °F
Wind: 10 mph from South

Location: Dole Tavaux

Current Time: Apr 26, 2015 at 12:44:44 PM

Latest Report: Apr 26, 2015 at 12:00 PM


Visibility: N/A

Pressure: 29.77 "Hg

Humidity: 64%

Dew point: 54 °F

Location of Chalon-sur-SaôneLocation

Historic Weather in Chalon-sur-Saône — Graph

°F

Chalon-sur-Saône temperature yesterday

Maximum temperature yesterday: 64 °F (at 2:00 PM)
Minimum temperature yesterday: 50 °F (at 12:00 AM)
Average temperature yesterday: 57 °F

Past Weeks' High & Low Weather Summary

 TemperatureHumidityPressure
High77 °F (Apr 15, 6:00 PM)100% (Apr 12, 6:30 AM)30.48 "Hg (Apr 12, 6:30 AM)
Low37 °F (Apr 15, 6:00 AM)18% (Apr 22, 4:30 PM)29.80 "Hg (Apr 26, 9:30 AM)
Average57 °F65%30.12 "Hg
* Reported Apr 11 11:00 AM — Apr 26 11:30 AM, Chalon-sur-Saône, Weather by CustomWeather, © 2015

Note: Actual official high and low records may vary slightly from our data, if they occured in-between our weather recording intervals... More about our weather records

Advertising

Chalon-sur-Saône weather history for previous 24 hours

 ConditionsComfort  
Time TempWeatherWind HumidityBarometerVisibility
11:30 AM
Sun, Apr 26
66 °FPartly sunny.10 mph60%29.80 "HgN/A
11:00 AM63 °FClear.7 mph73%29.80 "HgN/A
10:30 AM63 °FClear.10 mph73%29.80 "HgN/A
10:00 AM61 °FClear.7 mph77%29.80 "HgN/A
9:30 AM59 °FClear.6 mph82%29.80 "HgN/A
9:00 AM55 °FClear.2 mph94%29.83 "HgN/A
8:30 AM54 °FClear.2 mph100%29.83 "HgN/A
8:00 AM50 °FClear.2 mph100%29.83 "HgN/A
7:30 AM46 °FFog.3 mph100%29.83 "Hg3 mi
7:00 AM48 °FFog.2 mph100%29.83 "Hg2 mi
6:30 AM48 °FPassing clouds.5 mph100%29.83 "Hg4 mi
6:00 AM48 °FOvercast.2 mph100%29.83 "Hg5 mi
5:30 AM46 °FFog.3 mph100%29.83 "Hg1 mi
5:00 AM46 °FFog.3 mph100%29.83 "Hg1 mi
4:30 AM46 °FFog.3 mph100%29.86 "Hg0 mi
4:00 AM48 °FFog.3 mph100%29.86 "Hg0 mi
3:30 AM48 °FFog.3 mph100%29.86 "Hg1 mi
3:00 AM48 °FFog.3 mph100%29.86 "Hg0 mi
2:30 AM50 °FFog.2 mph100%29.89 "Hg0 mi
2:00 AM50 °FFog.2 mph100%29.89 "Hg0 mi
1:30 AM50 °FFog.2 mph94%29.89 "Hg0 mi
1:00 AM50 °FFog.2 mph94%29.89 "Hg2 mi
12:30 AM54 °FClear.2 mph94%29.89 "HgN/A
12:00 AM54 °FClear.5 mph100%29.89 "HgN/A
11:00 PM
Sat, Apr 25
55 °FClear.5 mph100%29.92 "HgN/A
10:30 PM55 °FCool.6 mph100%29.92 "HgN/A
10:00 PM55 °FPartly sunny.5 mph100%29.89 "Hg4 mi
9:30 PM55 °FCool.5 mph100%29.89 "HgN/A
9:00 PM57 °FPartly sunny.5 mph94%29.89 "HgN/A
8:30 PM57 °FMostly cloudy.6 mph94%29.86 "HgN/A
8:00 PM57 °FMostly cloudy.3 mph94%29.86 "HgN/A
7:30 PM57 °FOvercast.6 mph94%29.86 "HgN/A
7:00 PM57 °FOvercast.7 mph88%29.89 "HgN/A
6:30 PM57 °FOvercast.7 mph88%29.89 "HgN/A
6:00 PM59 °FLight rain. Broken clouds.7 mph88%29.89 "HgN/A
5:30 PM61 °FCool.8 mph77%29.89 "HgN/A
5:00 PM61 °FOvercast.9 mph72%29.89 "HgN/A
4:30 PM63 °FMostly cloudy.9 mph73%29.89 "HgN/A
4:00 PM63 °FOvercast.13 mph73%29.86 "HgN/A
3:30 PM63 °FMild.12 mph73%29.89 "HgN/A
3:00 PM63 °FMild.9 mph73%29.89 "HgN/A
2:30 PM63 °FMild.15 mph73%29.89 "HgN/A
2:00 PM64 °FBroken clouds.18 mph78%29.89 "HgN/A
1:30 PM61 °FBroken clouds.6 mph88%29.89 "HgN/A
1:00 PM59 °FPartly sunny.8 mph88%29.92 "HgN/A
12:30 PM59 °FLight rain. Partly sunny.7 mph88%29.92 "HgN/A
12:00 PM59 °FPartly sunny.9 mph88%29.92 "HgN/A
Weather by CustomWeather, © 2015

See weather overviewHow to use our weather pages